SBI8098 LTAI-UUDD

Flight info

Callsign SBI8098
Flight time 3h 8m
Altitude 35000
Route HISAR P29 BAG UW71 CRM DCT ODIRA/K0839F350 G900 SM G247 BALEG W70 AMEPU A100 KL L91 KANON T748 PEPOR T611 TUKMO N50 OLOPI OLOPI3N
Aircraft A320/M-SDFGIJ1RWY/LB1

Departure

Time 2026-05-07 12:36
Airport Antalya International Airport (LTAI)

Arrival

Time 2026-05-07 15:45
Airport Domodedovo International Airport (UUDD)
Time Latitude Longitude Altitude Speed Heading
2026-05-07 12:11 36.89826 30.80245 185 ft 0 kts 291°
2026-05-07 12:18 36.89823 30.80253 185 ft 2 kts 291°
2026-05-07 12:18 36.89818 30.80270 185 ft 2 kts 291°
2026-05-07 12:18 36.89813 30.80288 185 ft 2 kts 291°
2026-05-07 12:18 36.89807 30.80305 185 ft 2 kts 309°
2026-05-07 12:19 36.89795 30.80318 185 ft 2 kts 332°
2026-05-07 12:19 36.89781 30.80323 185 ft 2 kts 356°
2026-05-07 12:19 36.89766 30.80322 185 ft 2 kts 11°
2026-05-07 12:19 36.89751 30.80319 185 ft 2 kts
2026-05-07 12:20 36.89736 30.80317 185 ft 2 kts
2026-05-07 12:20 36.89721 30.80315 185 ft 2 kts
2026-05-07 12:20 36.89706 30.80313 185 ft 2 kts
2026-05-07 12:20 36.89691 30.80311 185 ft 2 kts
2026-05-07 12:21 36.89677 30.80309 185 ft 2 kts
2026-05-07 12:21 36.89661 30.80307 185 ft 2 kts
2026-05-07 12:21 36.89647 30.80304 185 ft 2 kts
2026-05-07 12:21 36.89632 30.80302 185 ft 2 kts
2026-05-07 12:22 36.89617 30.80299 185 ft 2 kts 27°
2026-05-07 12:22 36.89605 30.80288 185 ft 2 kts 53°
2026-05-07 12:22 36.89599 30.80271 185 ft 2 kts 82°
2026-05-07 12:22 36.89599 30.80252 185 ft 2 kts 102°
2026-05-07 12:23 36.89601 30.80243 185 ft 0 kts 97°
2026-05-07 12:26 36.89601 30.80244 185 ft 0 kts 97°
2026-05-07 12:27 36.89600 30.80256 185 ft 0 kts 97°
2026-05-07 12:27 36.89597 30.80282 185 ft 5 kts 97°
2026-05-07 12:27 36.89592 30.80334 185 ft 6 kts 96°
2026-05-07 12:27 36.89587 30.80392 185 ft 7 kts 96°
2026-05-07 12:28 36.89581 30.80456 185 ft 7 kts 96°
2026-05-07 12:28 36.89575 30.80526 185 ft 8 kts 97°
2026-05-07 12:28 36.89568 30.80601 185 ft 9 kts 96°
2026-05-07 12:28 36.89578 30.80678 185 ft 9 kts 44°
2026-05-07 12:29 36.89645 30.80700 185 ft 10 kts
2026-05-07 12:29 36.89724 30.80710 185 ft 11 kts
2026-05-07 12:29 36.89809 30.80722 185 ft 12 kts
2026-05-07 12:29 36.89901 30.80734 185 ft 13 kts
2026-05-07 12:30 36.89996 30.80747 185 ft 14 kts
2026-05-07 12:30 36.90096 30.80761 185 ft 14 kts
2026-05-07 12:30 36.90202 30.80776 185 ft 15 kts
2026-05-07 12:30 36.90310 30.80791 185 ft 15 kts
2026-05-07 12:31 36.90421 30.80806 185 ft 16 kts
2026-05-07 12:31 36.90535 30.80821 185 ft 16 kts
2026-05-07 12:31 36.90653 30.80837 185 ft 17 kts
2026-05-07 12:31 36.90772 30.80854 185 ft 17 kts
2026-05-07 12:32 36.90893 30.80871 185 ft 17 kts
2026-05-07 12:32 36.91015 30.80888 185 ft 17 kts
2026-05-07 12:32 36.91101 30.80902 185 ft 8 kts 17°
2026-05-07 12:32 36.91141 30.80958 185 ft 7 kts 83°
2026-05-07 12:33 36.91138 30.81009 185 ft 0 kts 96°
2026-05-07 12:34 36.91137 30.81017 185 ft 2 kts 96°
2026-05-07 12:34 36.91134 30.81058 185 ft 7 kts 96°
2026-05-07 12:34 36.91128 30.81123 185 ft 5 kts 103°
2026-05-07 12:34 36.91099 30.81137 185 ft 3 kts 186°
2026-05-07 12:35 36.91094 30.81136 185 ft 0 kts 186°
2026-05-07 12:35 36.91093 30.81136 185 ft 2 kts 186°
2026-05-07 12:35 36.90841 30.81102 185 ft 71 kts 186°
2026-05-07 12:35 36.90137 30.81004 185 ft 131 kts 187°
2026-05-07 12:36 36.89074 30.80862 336 ft 165 kts 186°
2026-05-07 12:36 36.87923 30.80744 907 ft 168 kts 178°
2026-05-07 12:36 36.86769 30.80943 1515 ft 169 kts 168°
2026-05-07 12:36 36.85638 30.81229 2042 ft 169 kts 171°
2026-05-07 12:37 36.84477 30.81449 2549 ft 171 kts 171°
2026-05-07 12:37 36.83380 30.81970 3020 ft 172 kts 134°
2026-05-07 12:37 36.82954 30.83325 3443 ft 176 kts 85°
2026-05-07 12:37 36.83447 30.84749 3729 ft 189 kts 42°
2026-05-07 12:38 36.84680 30.85383 4022 ft 203 kts
2026-05-07 12:38 36.86135 30.85361 4358 ft 218 kts 360°
2026-05-07 12:38 36.87732 30.85394 4622 ft 240 kts
2026-05-07 12:38 36.89451 30.85457 5016 ft 257 kts
2026-05-07 12:39 36.91285 30.85528 5598 ft 267 kts
2026-05-07 12:39 36.93148 30.85600 6418 ft 268 kts
2026-05-07 12:39 36.94976 30.85668 7226 ft 268 kts
2026-05-07 12:39 36.96848 30.85735 7983 ft 271 kts
2026-05-07 12:40 36.98753 30.85803 8726 ft 274 kts
2026-05-07 12:40 37.00647 30.85870 9469 ft 276 kts
2026-05-07 12:40 37.02563 30.85938 10173 ft 279 kts
2026-05-07 12:40 37.04543 30.86009 10647 ft 291 kts
2026-05-07 12:41 37.06633 30.86084 10955 ft 308 kts
2026-05-07 12:41 37.08824 30.86161 11263 ft 324 kts
2026-05-07 12:41 37.11108 30.86243 11795 ft 331 kts
2026-05-07 12:41 37.13432 30.86343 12466 ft 333 kts
2026-05-07 12:42 37.15760 30.86584 13127 ft 335 kts
2026-05-07 12:42 37.18077 30.86866 13755 ft 338 kts
2026-05-07 12:42 37.20403 30.87157 14373 ft 340 kts
2026-05-07 12:42 37.22774 30.87453 14994 ft 342 kts
2026-05-07 12:43 37.25154 30.87748 15584 ft 345 kts
2026-05-07 12:43 37.27527 30.88042 16158 ft 347 kts
2026-05-07 12:43 37.29942 30.88342 16730 ft 348 kts
2026-05-07 12:43 37.32377 30.88643 17278 ft 350 kts
2026-05-07 12:44 37.34792 30.88942 17804 ft 352 kts
2026-05-07 12:44 37.37244 30.89244 18310 ft 355 kts
2026-05-07 12:44 37.39720 30.89550 18821 ft 357 kts
2026-05-07 12:44 37.42175 30.89852 19321 ft 358 kts
2026-05-07 12:45 37.44662 30.90161 19804 ft 360 kts
2026-05-07 12:45 37.47169 30.90491 20265 ft 363 kts
2026-05-07 12:45 37.49696 30.90836 20749 ft 364 kts
2026-05-07 12:45 37.52207 30.91182 21212 ft 366 kts
2026-05-07 12:46 37.54744 30.91580 21648 ft 370 kts
2026-05-07 12:46 37.57240 30.92490 22069 ft 377 kts 18°
2026-05-07 12:46 37.59597 30.93993 22511 ft 384 kts 27°
2026-05-07 12:46 37.61796 30.95928 22937 ft 387 kts 31°
2026-05-07 12:47 37.63967 30.97952 23350 ft 390 kts 31°
2026-05-07 12:47 37.66142 30.99994 23753 ft 392 kts 31°
2026-05-07 12:47 37.68350 31.02064 24144 ft 394 kts 31°
2026-05-07 12:47 37.70534 31.04108 24536 ft 396 kts 31°
2026-05-07 12:48 37.72769 31.06195 24921 ft 398 kts 31°
2026-05-07 12:48 37.74999 31.08290 25293 ft 400 kts 32°
2026-05-07 12:48 37.77167 31.10514 25633 ft 405 kts 35°
2026-05-07 12:48 37.79262 31.12930 25968 ft 410 kts 38°
2026-05-07 12:49 37.81297 31.15474 26324 ft 412 kts 39°
2026-05-07 12:49 37.83300 31.18015 26651 ft 414 kts 39°
2026-05-07 12:49 37.85345 31.20621 26964 ft 416 kts 39°
2026-05-07 12:49 37.87358 31.23182 27270 ft 417 kts 39°
2026-05-07 12:50 37.89409 31.25794 27570 ft 419 kts 39°
2026-05-07 12:50 37.91473 31.28422 27861 ft 421 kts 39°
2026-05-07 12:50 37.93541 31.31057 28182 ft 422 kts 39°
2026-05-07 12:50 37.95622 31.33711 28484 ft 424 kts 39°
2026-05-07 12:51 37.97683 31.36340 28759 ft 425 kts 39°
2026-05-07 12:51 37.99750 31.38982 29037 ft 426 kts 39°
2026-05-07 12:51 38.01858 31.41677 29298 ft 428 kts 39°
2026-05-07 12:51 38.03944 31.44347 29538 ft 430 kts 39°
2026-05-07 12:52 38.06054 31.47050 29796 ft 431 kts 39°
2026-05-07 12:52 38.08184 31.49697 30037 ft 430 kts 36°
2026-05-07 12:52 38.10455 31.52158 30258 ft 428 kts 32°
2026-05-07 12:52 38.12820 31.54363 30505 ft 426 kts 28°
2026-05-07 12:53 38.15355 31.56382 30737 ft 424 kts 24°
2026-05-07 12:53 38.17970 31.58153 30968 ft 423 kts 21°
2026-05-07 12:53 38.20584 31.59811 31219 ft 423 kts 20°
2026-05-07 12:53 38.23211 31.61462 31518 ft 422 kts 20°
2026-05-07 12:54 38.25852 31.63122 31806 ft 421 kts 20°
2026-05-07 12:54 38.28474 31.64771 32095 ft 420 kts 20°
2026-05-07 12:54 38.31075 31.66410 32356 ft 420 kts 21°
2026-05-07 12:54 38.33664 31.68043 32590 ft 420 kts 21°
2026-05-07 12:55 38.36305 31.69711 32831 ft 419 kts 21°
2026-05-07 12:55 38.38907 31.71357 33072 ft 419 kts 20°
2026-05-07 12:55 38.41505 31.73002 33290 ft 419 kts 21°
2026-05-07 12:55 38.44099 31.74646 33526 ft 418 kts 21°
2026-05-07 12:56 38.46724 31.76311 33713 ft 419 kts 20°
2026-05-07 12:56 38.49310 31.77953 33875 ft 419 kts 20°
2026-05-07 12:56 38.51947 31.79628 34049 ft 420 kts 20°
2026-05-07 12:56 38.54551 31.81284 34194 ft 421 kts 20°
2026-05-07 12:57 38.57157 31.82941 34332 ft 421 kts 20°
2026-05-07 12:57 38.59769 31.84604 34479 ft 421 kts 20°
2026-05-07 12:57 38.62420 31.86295 34607 ft 422 kts 21°
2026-05-07 12:57 38.65038 31.87965 34728 ft 422 kts 20°
2026-05-07 12:58 38.67655 31.89636 34838 ft 423 kts 20°
2026-05-07 12:58 38.70273 31.91308 34938 ft 423 kts 21°
2026-05-07 12:58 38.75522 31.94666 35135 ft 424 kts 21°
2026-05-07 12:59 38.80822 31.98063 35183 ft 425 kts 21°
2026-05-07 12:59 38.86097 32.01451 35192 ft 425 kts 21°
2026-05-07 13:00 38.91357 32.04834 35197 ft 424 kts 21°
2026-05-07 13:00 38.96655 32.08247 35191 ft 424 kts 21°
2026-05-07 13:01 39.01900 32.11632 35192 ft 424 kts 20°
2026-05-07 13:01 39.07189 32.15050 35190 ft 424 kts 20°
2026-05-07 13:02 39.12465 32.18463 35190 ft 424 kts 21°
2026-05-07 13:02 39.17733 32.21880 35186 ft 424 kts 21°
2026-05-07 13:03 39.22987 32.25295 35184 ft 423 kts 21°
2026-05-07 13:03 39.28230 32.28705 35184 ft 423 kts 21°
2026-05-07 13:04 39.33496 32.32140 35183 ft 422 kts 21°
2026-05-07 13:04 39.38722 32.35554 35181 ft 422 kts 21°
2026-05-07 13:05 39.43969 32.39001 35184 ft 424 kts 21°
2026-05-07 13:05 39.49191 32.42446 35186 ft 423 kts 21°
2026-05-07 13:06 39.54425 32.45904 35187 ft 423 kts 21°
2026-05-07 13:06 39.59649 32.49362 35184 ft 422 kts 21°
2026-05-07 13:07 39.64884 32.52833 35183 ft 422 kts 21°
2026-05-07 13:07 39.70097 32.56295 35181 ft 422 kts 21°
2026-05-07 13:08 39.75338 32.59783 35178 ft 423 kts 21°
2026-05-07 13:08 39.80535 32.63247 35175 ft 423 kts 21°
2026-05-07 13:09 39.85784 32.66752 35176 ft 422 kts 22°
2026-05-07 13:09 39.91013 32.70250 35176 ft 422 kts 22°
2026-05-07 13:10 39.96224 32.73742 35174 ft 422 kts 22°
2026-05-07 13:10 40.01405 32.77456 35169 ft 425 kts 27°
2026-05-07 13:11 40.06065 32.82256 35173 ft 436 kts 39°
2026-05-07 13:11 40.10233 32.88061 35177 ft 439 kts 41°
2026-05-07 13:12 40.14285 32.93790 35177 ft 438 kts 41°
2026-05-07 13:12 40.18419 32.99622 35178 ft 439 kts 41°
2026-05-07 13:13 40.22584 33.05488 35178 ft 438 kts 41°
2026-05-07 13:13 40.26699 33.11354 35177 ft 439 kts 42°
2026-05-07 13:14 40.30712 33.17298 35174 ft 439 kts 43°
2026-05-07 13:14 40.34757 33.23283 35171 ft 439 kts 43°
2026-05-07 13:15 40.38814 33.29268 35169 ft 439 kts 42°
2026-05-07 13:15 40.42857 33.35233 35168 ft 439 kts 43°
2026-05-07 13:16 40.46905 33.41219 35165 ft 439 kts 43°
2026-05-07 13:16 40.50955 33.47216 35166 ft 439 kts 43°
2026-05-07 13:17 40.54983 33.53194 35169 ft 439 kts 43°
2026-05-07 13:17 40.59037 33.59221 35168 ft 439 kts 43°
2026-05-07 13:18 40.63076 33.65234 35166 ft 439 kts 43°
2026-05-07 13:18 40.67103 33.71245 35165 ft 440 kts 44°
2026-05-07 13:19 40.71152 33.77294 35165 ft 440 kts 44°
2026-05-07 13:19 40.75193 33.83343 35170 ft 440 kts 44°
2026-05-07 13:20 40.79227 33.89398 35171 ft 440 kts 44°
2026-05-07 13:20 40.83250 33.95453 35171 ft 439 kts 44°
2026-05-07 13:21 40.87266 34.01506 35170 ft 439 kts 44°
2026-05-07 13:21 40.91277 34.07565 35156 ft 439 kts 44°
2026-05-07 13:22 40.95293 34.13640 35162 ft 439 kts 44°
2026-05-07 13:22 40.99291 34.19705 35163 ft 440 kts 44°
2026-05-07 13:23 41.03297 34.25798 35161 ft 440 kts 44°
2026-05-07 13:23 41.07297 34.31890 35159 ft 439 kts 44°
2026-05-07 13:24 41.11297 34.37990 35172 ft 438 kts 44°
2026-05-07 13:24 41.15272 34.44061 35161 ft 438 kts 44°
2026-05-07 13:25 41.19249 34.50149 35155 ft 437 kts 44°
2026-05-07 13:25 41.23217 34.56240 35164 ft 438 kts 44°
2026-05-07 13:26 41.27196 34.62361 35160 ft 438 kts 44°
2026-05-07 13:26 41.31160 34.68471 35158 ft 437 kts 45°
2026-05-07 13:27 41.35119 34.74585 35162 ft 437 kts 45°
2026-05-07 13:27 41.39065 34.80691 35147 ft 437 kts 45°
2026-05-07 13:28 41.43011 34.86813 35152 ft 437 kts 45°
2026-05-07 13:28 41.46987 34.92991 35152 ft 437 kts 45°
2026-05-07 13:29 41.50917 34.99108 35156 ft 436 kts 45°
2026-05-07 13:29 41.54845 35.05236 35160 ft 437 kts 45°
2026-05-07 13:30 41.58783 35.11389 35164 ft 437 kts 45°
2026-05-07 13:30 41.62722 35.17557 35157 ft 437 kts 45°
2026-05-07 13:31 41.66665 35.23751 35154 ft 438 kts 45°
2026-05-07 13:31 41.70582 35.29906 35140 ft 438 kts 45°
2026-05-07 13:32 41.74531 35.36125 35132 ft 438 kts 46°
2026-05-07 13:32 41.78446 35.42309 35155 ft 438 kts 46°
2026-05-07 13:33 41.82373 35.48523 35145 ft 437 kts 46°
2026-05-07 13:33 41.86302 35.54755 35141 ft 438 kts 46°
2026-05-07 13:34 41.92170 35.64093 35151 ft 439 kts 46°
2026-05-07 13:35 41.96055 35.70291 35158 ft 440 kts 47°
2026-05-07 13:35 41.99987 35.76564 35150 ft 440 kts 47°
2026-05-07 13:36 42.03941 35.82845 35148 ft 441 kts 47°
2026-05-07 13:36 42.07898 35.89146 35158 ft 441 kts 47°
2026-05-07 13:37 42.11843 35.95449 35163 ft 442 kts 48°
2026-05-07 13:37 42.15775 36.01746 35159 ft 442 kts 48°
2026-05-07 13:38 42.19743 36.08115 35162 ft 442 kts 48°
2026-05-07 13:38 42.23672 36.14436 35164 ft 442 kts 48°
2026-05-07 13:39 42.27625 36.20806 35177 ft 442 kts 48°
2026-05-07 13:39 42.31550 36.27145 35177 ft 441 kts 48°
2026-05-07 13:40 42.35455 36.33464 35186 ft 441 kts 48°
2026-05-07 13:40 42.39394 36.39856 35174 ft 441 kts 48°
2026-05-07 13:41 42.43182 36.46014 35179 ft 441 kts 48°
2026-05-07 13:41 42.47084 36.52371 35186 ft 441 kts 48°
2026-05-07 13:42 42.51011 36.58782 35270 ft 442 kts 48°
2026-05-07 13:42 42.52949 36.61951 35414 ft 441 kts 48°
2026-05-07 13:42 42.54908 36.65158 35526 ft 440 kts 49°
2026-05-07 13:43 42.58807 36.71553 35708 ft 441 kts 49°
2026-05-07 13:43 42.62685 36.77930 35884 ft 441 kts 49°
2026-05-07 13:43 42.64623 36.81120 35987 ft 441 kts 49°
2026-05-07 13:44 42.66610 36.84309 36097 ft 441 kts 46°
2026-05-07 13:44 42.70900 36.90225 36170 ft 440 kts 41°
2026-05-07 13:45 42.75596 36.95447 36172 ft 439 kts 35°
2026-05-07 13:45 42.80672 37.00092 36178 ft 438 kts 32°
2026-05-07 13:46 42.85767 37.04565 36180 ft 438 kts 32°
2026-05-07 13:46 42.90866 37.09052 36174 ft 437 kts 32°
2026-05-07 13:47 42.95996 37.13582 36176 ft 438 kts 32°
2026-05-07 13:47 43.01091 37.18090 36181 ft 439 kts 32°
2026-05-07 13:48 43.06181 37.22604 36177 ft 438 kts 32°
2026-05-07 13:48 43.11311 37.27163 36189 ft 438 kts 32°
2026-05-07 13:49 43.16412 37.31707 36181 ft 438 kts 32°
2026-05-07 13:49 43.21495 37.36245 36178 ft 438 kts 32°
2026-05-07 13:50 43.26609 37.40820 36193 ft 438 kts 32°
2026-05-07 13:50 43.31696 37.45378 36187 ft 438 kts 32°
2026-05-07 13:51 43.36781 37.49942 36175 ft 438 kts 32°
2026-05-07 13:51 43.41881 37.54531 36187 ft 438 kts 32°
2026-05-07 13:52 43.46965 37.59116 36180 ft 438 kts 32°
2026-05-07 13:52 43.52035 37.63697 36185 ft 438 kts 32°
2026-05-07 13:53 43.56996 37.68190 36184 ft 438 kts 33°
2026-05-07 13:53 43.62108 37.72826 36190 ft 438 kts 33°
2026-05-07 13:54 43.67199 37.77452 36184 ft 438 kts 33°
2026-05-07 13:54 43.72248 37.82051 36191 ft 438 kts 33°
2026-05-07 13:55 43.77355 37.86713 36191 ft 438 kts 33°
2026-05-07 13:55 43.82401 37.91330 36209 ft 438 kts 33°
2026-05-07 13:56 43.87497 37.96001 36203 ft 438 kts 33°
2026-05-07 13:56 43.92547 38.00639 36206 ft 438 kts 33°
2026-05-07 13:57 43.97615 38.05302 36200 ft 438 kts 33°
2026-05-07 13:57 44.02698 38.09991 36185 ft 438 kts 33°
2026-05-07 13:58 44.07764 38.14674 36184 ft 438 kts 33°
2026-05-07 13:58 44.12826 38.19362 36194 ft 437 kts 33°
2026-05-07 13:59 44.17896 38.24067 36180 ft 438 kts 33°
2026-05-07 13:59 44.22945 38.28762 36184 ft 437 kts 33°
2026-05-07 14:00 44.28021 38.33493 36180 ft 437 kts 33°
2026-05-07 14:00 44.33046 38.38188 36180 ft 437 kts 34°
2026-05-07 14:01 44.38092 38.42911 36177 ft 437 kts 34°
2026-05-07 14:01 44.43139 38.47645 36170 ft 436 kts 34°
2026-05-07 14:02 44.48166 38.52372 36169 ft 437 kts 34°
2026-05-07 14:02 44.53177 38.57092 36162 ft 437 kts 34°
2026-05-07 14:03 44.58200 38.61834 36172 ft 437 kts 34°
2026-05-07 14:03 44.63233 38.66596 36165 ft 436 kts 34°
2026-05-07 14:04 44.68274 38.71377 36164 ft 436 kts 34°
2026-05-07 14:04 44.73294 38.76135 36162 ft 436 kts 34°
2026-05-07 14:05 44.78524 38.80421 36156 ft 436 kts 28°
2026-05-07 14:05 44.84035 38.83942 36154 ft 436 kts 24°
2026-05-07 14:06 44.89627 38.87190 36155 ft 435 kts 23°
2026-05-07 14:06 44.95176 38.90408 36149 ft 434 kts 24°
2026-05-07 14:07 45.00765 38.93664 36152 ft 435 kts 24°
2026-05-07 14:07 45.06347 38.96926 36155 ft 435 kts 24°
2026-05-07 14:08 45.11920 39.00190 36154 ft 435 kts 24°
2026-05-07 14:08 45.17535 39.03486 36151 ft 434 kts 24°
2026-05-07 14:09 45.23034 39.06721 36146 ft 433 kts 24°
2026-05-07 14:09 45.28610 39.10009 36148 ft 433 kts 24°
2026-05-07 14:10 45.34143 39.13278 36151 ft 434 kts 24°
2026-05-07 14:10 45.39720 39.16580 36133 ft 434 kts 24°
2026-05-07 14:11 45.45295 39.19888 36140 ft 433 kts 24°
2026-05-07 14:11 45.50810 39.23169 36137 ft 433 kts 24°
2026-05-07 14:12 45.56383 39.26492 36142 ft 433 kts 24°
2026-05-07 14:12 45.61914 39.29755 36125 ft 433 kts 22°
2026-05-07 14:13 45.67667 39.32423 36134 ft 434 kts 16°
2026-05-07 14:13 45.73531 39.34335 36159 ft 435 kts 13°
2026-05-07 14:14 45.79465 39.36115 36120 ft 435 kts 13°
2026-05-07 14:14 45.85365 39.37896 36128 ft 435 kts 13°
2026-05-07 14:15 45.91261 39.39680 36143 ft 435 kts 13°
2026-05-07 14:15 45.97190 39.41466 36142 ft 435 kts 13°
2026-05-07 14:16 46.03073 39.43242 36133 ft 435 kts 13°
2026-05-07 14:16 46.09021 39.45045 36132 ft 435 kts 13°
2026-05-07 14:17 46.14919 39.46836 36125 ft 435 kts 13°
2026-05-07 14:17 46.19806 39.48324 36129 ft 436 kts 13°
2026-05-07 14:18 46.25673 39.50114 36118 ft 435 kts 13°
2026-05-07 14:18 46.31583 39.51922 36118 ft 436 kts 13°
2026-05-07 14:19 46.37489 39.53732 36113 ft 436 kts 13°
2026-05-07 14:19 46.43373 39.55704 36111 ft 436 kts 15°
2026-05-07 14:20 46.49276 39.57763 36109 ft 436 kts 15°
2026-05-07 14:20 46.55161 39.59812 36108 ft 436 kts 15°
2026-05-07 14:21 46.61050 39.61860 36113 ft 436 kts 15°
2026-05-07 14:21 46.66950 39.63913 36108 ft 436 kts 15°
2026-05-07 14:22 46.72850 39.65969 36100 ft 436 kts 15°
2026-05-07 14:22 46.78486 39.67938 36103 ft 436 kts 15°
2026-05-07 14:23 46.84366 39.69996 36114 ft 436 kts 15°
2026-05-07 14:23 46.90264 39.72066 36097 ft 436 kts 15°
2026-05-07 14:24 46.96161 39.74139 36094 ft 436 kts 15°
2026-05-07 14:24 47.02078 39.76225 36090 ft 436 kts 15°
2026-05-07 14:25 47.07968 39.78307 36083 ft 436 kts 15°
2026-05-07 14:25 47.13868 39.80396 36080 ft 436 kts 15°
2026-05-07 14:26 47.19551 39.82414 36081 ft 437 kts 15°
2026-05-07 14:26 47.25531 39.84543 36086 ft 437 kts 15°
2026-05-07 14:27 47.31422 39.86646 36078 ft 437 kts 15°
2026-05-07 14:27 47.37349 39.88770 36080 ft 438 kts 15°
2026-05-07 14:28 47.43250 39.90889 36073 ft 437 kts 15°
2026-05-07 14:28 47.49128 39.93006 36078 ft 438 kts 16°
2026-05-07 14:29 47.54997 39.95433 36074 ft 437 kts 18°
2026-05-07 14:29 47.60841 39.97966 36073 ft 438 kts 18°
2026-05-07 14:30 47.66526 40.00430 36084 ft 438 kts 18°
2026-05-07 14:30 47.72386 40.02970 36076 ft 438 kts 18°
2026-05-07 14:31 47.78212 40.05502 36071 ft 438 kts 18°
2026-05-07 14:31 47.84059 40.08046 36079 ft 439 kts 18°
2026-05-07 14:32 47.89924 40.10385 36076 ft 440 kts 14°
2026-05-07 14:32 47.95926 40.12193 36067 ft 440 kts 13°
2026-05-07 14:33 48.01912 40.13942 36066 ft 440 kts 13°
2026-05-07 14:33 48.07931 40.15698 36068 ft 440 kts 11°
2026-05-07 14:34 48.13994 40.17038 36066 ft 441 kts
2026-05-07 14:34 48.19923 40.18245 36058 ft 442 kts
2026-05-07 14:35 48.26092 40.19508 36053 ft 442 kts
2026-05-07 14:35 48.32191 40.20770 36054 ft 443 kts
2026-05-07 14:36 48.38234 40.22022 36052 ft 442 kts
2026-05-07 14:36 48.44334 40.23293 36051 ft 443 kts
2026-05-07 14:37 48.50429 40.24562 36045 ft 443 kts
2026-05-07 14:37 48.59563 40.26467 36042 ft 444 kts
2026-05-07 14:38 48.65679 40.27748 36040 ft 445 kts
2026-05-07 14:38 48.71781 40.29030 36038 ft 444 kts
2026-05-07 14:39 48.77888 40.30318 36037 ft 445 kts
2026-05-07 14:39 48.84055 40.31618 36038 ft 446 kts
2026-05-07 14:40 48.90166 40.32909 36037 ft 445 kts
2026-05-07 14:40 48.96279 40.34207 36038 ft 446 kts
2026-05-07 14:41 49.02422 40.35521 36041 ft 447 kts
2026-05-07 14:41 49.08573 40.36834 36042 ft 447 kts
2026-05-07 14:42 49.14746 40.38157 36043 ft 447 kts
2026-05-07 14:42 49.20866 40.39471 36035 ft 447 kts
2026-05-07 14:43 49.26958 40.40781 36030 ft 447 kts
2026-05-07 14:43 49.33072 40.42102 36026 ft 447 kts
2026-05-07 14:44 49.39229 40.43436 36016 ft 448 kts
2026-05-07 14:44 49.45383 40.44772 36009 ft 448 kts
2026-05-07 14:45 49.51546 40.46101 36006 ft 449 kts
2026-05-07 14:45 49.57739 40.46830 36008 ft 449 kts
2026-05-07 14:46 49.63985 40.47242 36009 ft 449 kts
2026-05-07 14:46 49.70196 40.47647 36002 ft 449 kts
2026-05-07 14:47 49.76457 40.48069 36001 ft 449 kts
2026-05-07 14:47 49.82658 40.48491 36000 ft 450 kts
2026-05-07 14:48 49.88937 40.48922 36004 ft 451 kts
2026-05-07 14:48 49.95159 40.49349 36002 ft 451 kts
2026-05-07 14:49 50.01310 40.49834 35994 ft 450 kts
2026-05-07 14:49 50.07515 40.51150 35996 ft 449 kts 12°
2026-05-07 14:50 50.13533 40.53507 35994 ft 449 kts 17°
2026-05-07 14:50 50.19481 40.56437 35982 ft 449 kts 18°
2026-05-07 14:51 50.25451 40.59424 35978 ft 449 kts 18°
2026-05-07 14:51 50.31406 40.62398 35985 ft 450 kts 18°
2026-05-07 14:52 50.37363 40.65371 35980 ft 450 kts 19°
2026-05-07 14:52 50.43236 40.68309 35979 ft 450 kts 19°
2026-05-07 14:53 50.49147 40.71276 35979 ft 450 kts 19°
2026-05-07 14:53 50.55130 40.74286 35978 ft 452 kts 19°
2026-05-07 14:54 50.61120 40.77307 35980 ft 453 kts 19°
2026-05-07 14:54 50.67092 40.80331 35978 ft 455 kts 19°
2026-05-07 14:55 50.73118 40.83393 35976 ft 455 kts 18°
2026-05-07 14:55 50.79140 40.86343 35969 ft 455 kts 15°
2026-05-07 14:56 50.85363 40.88146 35966 ft 455 kts
2026-05-07 14:56 50.91684 40.88447 35966 ft 455 kts 358°
2026-05-07 14:57 50.97921 40.87331 35961 ft 455 kts 352°
2026-05-07 14:57 51.04207 40.85722 35964 ft 456 kts 351°
2026-05-07 14:58 51.10463 40.84115 35962 ft 457 kts 351°
2026-05-07 14:58 51.16750 40.82511 35965 ft 457 kts 351°
2026-05-07 14:59 51.22884 40.80949 35963 ft 457 kts 351°
2026-05-07 14:59 51.29009 40.79389 35962 ft 456 kts 351°
2026-05-07 15:00 51.35278 40.77788 35966 ft 455 kts 351°
2026-05-07 15:00 51.41510 40.76198 35964 ft 455 kts 351°
2026-05-07 15:01 51.47731 40.74607 35959 ft 456 kts 351°
2026-05-07 15:01 51.53960 40.73000 35955 ft 454 kts 351°
2026-05-07 15:02 51.60171 40.71393 35956 ft 451 kts 351°
2026-05-07 15:02 51.66332 40.69802 35960 ft 451 kts 351°
2026-05-07 15:03 51.72499 40.68203 35967 ft 452 kts 351°
2026-05-07 15:03 51.78688 40.66588 35969 ft 451 kts 351°
2026-05-07 15:04 51.84883 40.64966 35974 ft 451 kts 351°
2026-05-07 15:04 51.91057 40.63353 35975 ft 450 kts 351°
2026-05-07 15:05 51.97190 40.61747 35973 ft 450 kts 351°
2026-05-07 15:05 52.03378 40.60121 35974 ft 450 kts 351°
2026-05-07 15:06 52.09555 40.58494 35973 ft 450 kts 351°
2026-05-07 15:06 52.15714 40.56866 35983 ft 450 kts 351°
2026-05-07 15:07 52.21690 40.55283 35979 ft 449 kts 351°
2026-05-07 15:07 52.27641 40.53700 35985 ft 449 kts 351°
2026-05-07 15:08 52.33758 40.52070 35979 ft 447 kts 351°
2026-05-07 15:08 52.39887 40.50433 35976 ft 447 kts 351°
2026-05-07 15:09 52.45923 40.48281 35976 ft 446 kts 344°
2026-05-07 15:09 52.51773 40.45050 35974 ft 446 kts 338°
2026-05-07 15:10 52.57365 40.40768 35974 ft 446 kts 332°
2026-05-07 15:10 52.62747 40.35783 35969 ft 445 kts 330°
2026-05-07 15:11 52.68018 40.30801 35970 ft 444 kts 329°
2026-05-07 15:11 52.73345 40.25776 35971 ft 444 kts 330°
2026-05-07 15:12 52.78722 40.20699 35961 ft 443 kts 330°
2026-05-07 15:12 52.84042 40.15664 35956 ft 444 kts 330°
2026-05-07 15:13 52.89394 40.10588 35958 ft 444 kts 329°
2026-05-07 15:13 52.94727 40.05512 35962 ft 444 kts 329°
2026-05-07 15:14 53.00057 40.00424 35963 ft 443 kts 329°
2026-05-07 15:14 53.05399 39.95307 35968 ft 443 kts 329°
2026-05-07 15:15 53.10717 39.90199 35965 ft 442 kts 330°
2026-05-07 15:15 53.15983 39.85128 35970 ft 442 kts 330°
2026-05-07 15:16 53.21033 39.80254 35962 ft 442 kts 329°
2026-05-07 15:16 53.26029 39.75415 35961 ft 442 kts 329°
2026-05-07 15:17 53.31333 39.70263 35755 ft 441 kts 329°
2026-05-07 15:17 53.33953 39.67712 35541 ft 438 kts 329°
2026-05-07 15:17 53.36597 39.65133 35324 ft 436 kts 329°
2026-05-07 15:18 53.39194 39.62597 35109 ft 433 kts 329°
2026-05-07 15:18 53.41806 39.60138 34774 ft 431 kts 332°
2026-05-07 15:18 53.44444 39.57857 34249 ft 430 kts 333°
2026-05-07 15:18 53.47106 39.55608 33578 ft 431 kts 333°
2026-05-07 15:19 53.49766 39.53369 32861 ft 432 kts 333°
2026-05-07 15:19 53.52434 39.51118 32123 ft 433 kts 333°
2026-05-07 15:19 53.55107 39.48857 31373 ft 433 kts 333°
2026-05-07 15:19 53.57819 39.46556 30594 ft 434 kts 333°
2026-05-07 15:20 53.60495 39.44282 29878 ft 433 kts 333°
2026-05-07 15:20 53.63152 39.42020 29401 ft 430 kts 333°
2026-05-07 15:20 53.65792 39.39767 28906 ft 426 kts 333°
2026-05-07 15:20 53.68443 39.37501 28409 ft 422 kts 333°
2026-05-07 15:21 53.71023 39.35294 27924 ft 419 kts 333°
2026-05-07 15:21 53.73597 39.33087 27437 ft 415 kts 332°
2026-05-07 15:21 53.76193 39.30860 26934 ft 412 kts 332°
2026-05-07 15:21 53.78599 39.28791 26473 ft 408 kts 332°
2026-05-07 15:22 53.81047 39.26684 25990 ft 405 kts 332°
2026-05-07 15:22 53.83534 39.24540 25509 ft 402 kts 332°
2026-05-07 15:22 53.85992 39.22419 25022 ft 398 kts 332°
2026-05-07 15:22 53.88467 39.20281 24516 ft 395 kts 332°
2026-05-07 15:23 53.90892 39.18183 24030 ft 392 kts 332°
2026-05-07 15:23 53.93293 39.16102 23539 ft 389 kts 332°
2026-05-07 15:23 53.95687 39.14023 23047 ft 386 kts 331°
2026-05-07 15:23 53.98059 39.11961 22560 ft 382 kts 331°
2026-05-07 15:24 54.00403 39.09919 22073 ft 379 kts 331°
2026-05-07 15:24 54.02726 39.07895 21591 ft 376 kts 331°
2026-05-07 15:24 54.05027 39.05886 21104 ft 373 kts 331°
2026-05-07 15:24 54.07314 39.03889 20619 ft 370 kts 331°
2026-05-07 15:25 54.09603 39.01885 20132 ft 367 kts 331°
2026-05-07 15:25 54.11883 38.99887 19644 ft 365 kts 330°
2026-05-07 15:25 54.14113 38.97930 19160 ft 363 kts 330°
2026-05-07 15:25 54.16354 38.95961 18678 ft 361 kts 330°
2026-05-07 15:26 54.18578 38.94004 18208 ft 358 kts 330°
2026-05-07 15:26 54.20761 38.92084 17950 ft 349 kts 330°
2026-05-07 15:26 54.22827 38.90264 17825 ft 336 kts 330°
2026-05-07 15:26 54.24900 38.88496 17581 ft 336 kts 333°
2026-05-07 15:27 54.26593 38.87325 17385 ft 340 kts 336°
2026-05-07 15:27 54.28782 38.85947 17139 ft 340 kts 337°
2026-05-07 15:27 54.31043 38.84534 16883 ft 339 kts 337°
2026-05-07 15:27 54.33235 38.83139 16632 ft 338 kts 336°
2026-05-07 15:28 54.35445 38.81711 16376 ft 337 kts 336°
2026-05-07 15:28 54.37630 38.80284 16128 ft 336 kts 336°
2026-05-07 15:28 54.39793 38.78863 15877 ft 335 kts 336°
2026-05-07 15:28 54.41972 38.77428 15625 ft 334 kts 336°
2026-05-07 15:29 54.44130 38.76002 15373 ft 333 kts 336°
2026-05-07 15:29 54.46268 38.74587 15126 ft 332 kts 336°
2026-05-07 15:29 54.48416 38.73165 14875 ft 330 kts 335°
2026-05-07 15:29 54.50545 38.71753 14628 ft 329 kts 336°
2026-05-07 15:30 54.52687 38.70349 14380 ft 328 kts 336°
2026-05-07 15:30 54.54800 38.68970 14133 ft 327 kts 336°
2026-05-07 15:30 54.56936 38.67576 13883 ft 326 kts 336°
2026-05-07 15:30 54.59027 38.66206 13638 ft 325 kts 336°
2026-05-07 15:31 54.61131 38.64825 13387 ft 324 kts 336°
2026-05-07 15:31 54.63236 38.63442 13139 ft 323 kts 336°
2026-05-07 15:31 54.65324 38.62068 12895 ft 322 kts 336°
2026-05-07 15:31 54.67415 38.60693 12651 ft 321 kts 336°
2026-05-07 15:32 54.69505 38.59315 12404 ft 319 kts 336°
2026-05-07 15:32 54.71569 38.57951 12159 ft 318 kts 336°
2026-05-07 15:32 54.73603 38.56609 11914 ft 317 kts 336°
2026-05-07 15:32 54.75674 38.55238 11665 ft 316 kts 336°
2026-05-07 15:33 54.77719 38.53884 11416 ft 315 kts 336°
2026-05-07 15:33 54.79757 38.52533 11168 ft 314 kts 336°
2026-05-07 15:33 54.81782 38.51191 10925 ft 313 kts 335°
2026-05-07 15:33 54.83786 38.49860 10690 ft 309 kts 335°
2026-05-07 15:34 54.85785 38.48532 10368 ft 303 kts 336°
2026-05-07 15:34 54.87738 38.47233 10053 ft 298 kts 335°
2026-05-07 15:34 54.89634 38.45970 9828 ft 289 kts 336°
2026-05-07 15:34 54.91491 38.44733 9706 ft 285 kts 335°
2026-05-07 15:35 54.93342 38.43495 9583 ft 284 kts 335°
2026-05-07 15:35 54.95163 38.42275 9421 ft 280 kts 335°
2026-05-07 15:35 54.96975 38.41013 9016 ft 279 kts 331°
2026-05-07 15:35 54.98609 38.39308 8603 ft 276 kts 322°
2026-05-07 15:36 55.00177 38.37370 8218 ft 275 kts 321°
2026-05-07 15:36 55.01721 38.35447 7826 ft 274 kts 321°
2026-05-07 15:36 55.03280 38.33538 7449 ft 274 kts 321°
2026-05-07 15:36 55.04845 38.31652 7081 ft 272 kts 321°
2026-05-07 15:37 55.06404 38.29791 6719 ft 271 kts 321°
2026-05-07 15:37 55.07942 38.27963 6351 ft 271 kts 321°
2026-05-07 15:37 55.09502 38.26116 6007 ft 269 kts 321°
2026-05-07 15:37 55.11050 38.24282 5647 ft 268 kts 321°
2026-05-07 15:38 55.12596 38.22452 5281 ft 267 kts 321°
2026-05-07 15:38 55.13804 38.21021 4995 ft 266 kts 321°
2026-05-07 15:38 55.15321 38.19223 4633 ft 265 kts 321°
2026-05-07 15:38 55.16769 38.17514 4331 ft 263 kts 322°
2026-05-07 15:39 55.18228 38.15876 4157 ft 254 kts 322°
2026-05-07 15:39 55.19687 38.14221 3995 ft 245 kts 322°
2026-05-07 15:39 55.21087 38.12584 3830 ft 237 kts 321°
2026-05-07 15:39 55.22424 38.10987 3690 ft 229 kts 320°
2026-05-07 15:40 55.23712 38.09429 3537 ft 222 kts 320°
2026-05-07 15:40 55.24964 38.07909 3325 ft 218 kts 320°
2026-05-07 15:40 55.26212 38.06392 3115 ft 213 kts 320°
2026-05-07 15:40 55.27405 38.04947 3019 ft 202 kts 320°
2026-05-07 15:41 55.28503 38.03625 3056 ft 185 kts 320°
2026-05-07 15:41 55.29541 38.02369 2849 ft 178 kts 319°
2026-05-07 15:41 55.30539 38.01160 2636 ft 172 kts 319°
2026-05-07 15:41 55.31499 38.00000 2409 ft 167 kts 319°
2026-05-07 15:42 55.32431 37.98879 2198 ft 154 kts 318°
2026-05-07 15:42 55.33271 37.97872 2016 ft 138 kts 318°
2026-05-07 15:42 55.34043 37.96939 1841 ft 135 kts 317°
2026-05-07 15:42 55.34820 37.95993 1690 ft 135 kts 318°
2026-05-07 15:43 55.35603 37.95044 1524 ft 137 kts 321°
2026-05-07 15:43 55.36416 37.94066 1347 ft 146 kts 320°
2026-05-07 15:43 55.37238 37.93094 1134 ft 142 kts 319°
2026-05-07 15:43 55.38056 37.92101 963 ft 141 kts 321°
2026-05-07 15:44 55.38852 37.91137 787 ft 141 kts 321°
2026-05-07 15:44 55.39653 37.90164 633 ft 135 kts 321°
2026-05-07 15:44 55.40379 37.89284 596 ft 110 kts 326°
2026-05-07 15:44 55.40868 37.88695 595 ft 66 kts 321°
2026-05-07 15:45 55.41148 37.88400 595 ft 34 kts 341°
2026-05-07 15:45 55.41288 37.88356 595 ft 12 kts 355°
2026-05-07 15:45 55.41367 37.88362 595 ft 10 kts 37°
2026-05-07 15:45 55.41353 37.88479 595 ft 12 kts 140°
2026-05-07 15:46 55.41205 37.88658 595 ft 13 kts 146°
2026-05-07 15:46 55.41121 37.88759 595 ft 14 kts 146°
2026-05-07 15:46 55.41035 37.88862 595 ft 15 kts 145°
2026-05-07 15:47 55.40947 37.88969 595 ft 15 kts 146°
2026-05-07 15:47 55.40856 37.89077 595 ft 13 kts 146°
2026-05-07 15:47 55.40790 37.89202 595 ft 14 kts 114°
2026-05-07 15:47 55.40790 37.89374 595 ft 13 kts 67°
2026-05-07 15:48 55.40844 37.89509 595 ft 13 kts 45°
2026-05-07 15:48 55.40904 37.89644 595 ft 14 kts 56°
2026-05-07 15:48 55.40958 37.89781 595 ft 13 kts 56°
2026-05-07 15:48 55.41002 37.89897 595 ft 10 kts 56°
2026-05-07 15:49 55.41045 37.90005 595 ft 11 kts 56°
2026-05-07 15:49 55.41085 37.90109 595 ft 9 kts 50°
2026-05-07 15:49 55.41139 37.90153 595 ft 7 kts 12°
2026-05-07 15:49 55.41189 37.90178 595 ft 7 kts 30°
2026-05-07 15:50 55.41221 37.90239 595 ft 5 kts 37°
2026-05-07 15:50 55.41252 37.90224 595 ft 4 kts 324°
2026-05-07 15:50 55.41278 37.90193 595 ft 2 kts 326°
2026-05-07 15:50 55.41296 37.90172 595 ft 3 kts 326°
2026-05-07 15:51 55.41318 37.90145 595 ft 2 kts 327°
2026-05-07 15:51 55.41324 37.90116 595 ft 3 kts 259°
2026-05-07 15:51 55.41314 37.90084 595 ft 3 kts 238°
2026-05-07 15:51 55.41305 37.90058 595 ft 1 kts 238°
2026-05-07 15:52 55.41299 37.90041 595 ft 0 kts 238°